Weather History for KOCF - February, 2013

Change the Weather History Date:

Saturday, February 16, 2013

  Actual Average (KGNV) Record (KGNV)
Temperature  
Mean Temperature 52 °F 58 °F  
Max Temperature 62 °F 70 °F 84 °F (1990)
Min Temperature 42 °F 46 °F 23 °F (1916)
Degree Days  
Heating Degree Days 13 8  
Month to date heating degree days 145  
Since 1 July heating degree days 947  
Cooling Degree Days 0 1  
Month to date cooling degree days 12  
Year to date cooling degree days 24  
Growing Degree Days 2 (Base 50)    
Moisture  
Dew Point 35 °F    
Average Humidity 65    
Maximum Humidity 87    
Minimum Humidity 34    
Precipitation  
Precipitation 0.00 in 0.12 in 3.14 in (1952)
Month to date precipitation 1.78  
Year to date precipitation 5.09  
Snow  
Snow 0.00 in 0.00 in 0.00 in ()
Month to date snowfall 0.0  
Since 1 July snowfall 0.0  
Snow Depth -    
Sea Level Pressure  
Sea Level Pressure 30.02 in    
Wind  
Wind Speed 4 mph (NW)    
Max Wind Speed 18 mph    
Max Gust Speed 25 mph    
Visibility 10 miles    
Events      
T = Trace of Precipitation, MM = Missing Value Source: NWS Daily Summary

Daily Weather History Graph

Daily Weather History Graph

Search for Another Location

Airport or City:

Trip Planner

Search our weather history database for the weather conditions in past years. The results will help you decide how hot, cold, wet, or windy it might be!

Date:

Astronomy

Feb. 16, 2013 Rise Set
Actual Time 7:06 AM EST 6:19 PM EST
Civil Twilight 6:42 AM EST 6:43 PM EST
Nautical Twilight 6:14 AM EST 7:11 PM EST
Astronomical Twilight 5:47 AM EST 7:39 PM EST
Moon 10:52 AM EST (2/16) No Moon Set
Length of Visible Light 12h 01m
Length of Day
11h 12m
Waxing Crescent, 39% of the Moon is Illuminated
Feb 16
Waxing Crescent
Feb 17
First Quarter
Feb 25
Full
Mar 4
Last Quarter
Mar 11
New

Hourly Weather History & Observations

Time (EST) Temp. Windchill Dew Point Humidity Pressure Visibility Wind Dir Wind Speed Gust Speed Precip Events Conditions
12:15 AM 42.8 °F - 39.2 °F 87% 30.02 in 10.0 mi Calm Calm - N/A   Clear
12:35 AM 44.6 °F - 39.2 °F 81% 30.02 in 10.0 mi Calm Calm - N/A   Clear
12:55 AM 44.6 °F - 39.2 °F 81% 30.02 in 10.0 mi Calm Calm - N/A   Clear
1:15 AM 44.6 °F 43.1 °F 39.2 °F 81% 30.02 in 10.0 mi NNW 3.5 mph - N/A   Clear
1:35 AM 46.4 °F - 39.2 °F 76% 30.01 in 10.0 mi Calm Calm - N/A   Clear
1:55 AM 46.4 °F - 39.2 °F 76% 29.99 in 10.0 mi Calm Calm - N/A   Clear
2:15 AM 46.4 °F - 41.0 °F 81% 29.99 in 10.0 mi Calm Calm - N/A   Clear
2:35 AM 44.6 °F - 39.2 °F 81% 29.99 in 10.0 mi Calm Calm - N/A   Clear
2:55 AM 46.4 °F - 41.0 °F 81% 29.98 in 10.0 mi Calm Calm - N/A   Clear
3:15 AM 44.6 °F 43.1 °F 41.0 °F 87% 29.97 in 10.0 mi SSW 3.5 mph - N/A   Clear
3:35 AM 44.6 °F - 41.0 °F 87% 29.97 in 10.0 mi Calm Calm - N/A   Clear
3:55 AM 44.6 °F - 41.0 °F 87% 29.97 in 10.0 mi Calm Calm - N/A   Clear
4:15 AM 44.6 °F - 41.0 °F 87% 29.96 in 10.0 mi Calm Calm - N/A   Clear
4:35 AM 44.6 °F - 41.0 °F 87% 29.96 in 10.0 mi Calm Calm - N/A   Clear
4:55 AM 44.6 °F - 41.0 °F 87% 29.97 in 10.0 mi Calm Calm - N/A   Clear
5:15 AM 44.6 °F - 41.0 °F 87% 29.97 in 10.0 mi Calm Calm - N/A   Clear
5:35 AM 44.6 °F - 41.0 °F 87% 29.97 in 10.0 mi Calm Calm - N/A   Clear
5:55 AM 44.6 °F 43.1 °F 41.0 °F 87% 29.97 in 10.0 mi SSW 3.5 mph - N/A   Clear
6:15 AM 44.6 °F - 41.0 °F 87% 29.96 in 10.0 mi Calm Calm - N/A   Clear
6:35 AM 44.6 °F - 41.0 °F 87% 29.96 in 10.0 mi Calm Calm - N/A   Clear
6:50 AM 44.6 °F - 41.0 °F 87% 29.97 in 7.0 mi Calm Calm - N/A   Scattered Clouds
7:50 AM 44.6 °F - 41.0 °F 87% 29.96 in 7.0 mi Calm Calm - N/A   Scattered Clouds
8:50 AM 50.0 °F - 42.8 °F 76% 29.98 in 7.0 mi WNW 5.8 mph - N/A   Mostly Cloudy
9:50 AM 53.6 °F - 42.8 °F 67% 29.99 in 10.0 mi NW 8.1 mph - N/A   Clear
10:50 AM 57.2 °F - 46.4 °F 67% 30.00 in 10.0 mi NW 6.9 mph - N/A   Clear
11:50 AM 62.6 °F - 39.2 °F 42% 29.98 in 10.0 mi WNW 15.0 mph 20.7 mph N/A   Clear
12:50 PM 60.8 °F - 37.4 °F 42% 29.98 in 10.0 mi WNW 15.0 mph 21.9 mph N/A   Partly Cloudy
1:50 PM 57.2 °F - 39.2 °F 51% 29.99 in 10.0 mi WNW 18.4 mph 25.3 mph N/A   Mostly Cloudy
2:50 PM 57.2 °F - 37.4 °F 48% 29.98 in 10.0 mi NNW 18.4 mph 25.3 mph N/A   Partly Cloudy
3:50 PM 57.2 °F - 37.4 °F 48% 29.99 in 10.0 mi WNW 16.1 mph 23.0 mph N/A   Partly Cloudy
4:55 PM 57.2 °F - 33.8 °F 41% 29.98 in 10.0 mi West 11.5 mph - N/A   Partly Cloudy
5:50 PM 53.6 °F - 30.2 °F 41% 30.00 in 10.0 mi West 9.2 mph 19.6 mph N/A   Partly Cloudy
6:50 PM 51.8 °F - 30.2 °F 44% 30.02 in 10.0 mi West 9.2 mph - N/A   Clear
7:55 PM 50.0 °F - 33.8 °F 54% 30.04 in 10.0 mi WNW 4.6 mph - N/A   Overcast
8:15 PM 50.0 °F - 33.8 °F 54% 30.04 in 10.0 mi West 5.8 mph - N/A   Mostly Cloudy
8:35 PM 50.0 °F - 33.8 °F 54% 30.06 in 10.0 mi NW 9.2 mph - N/A   Partly Cloudy
8:55 PM 50.0 °F - 30.2 °F 47% 30.08 in 10.0 mi NNW 13.8 mph 21.9 mph N/A   Clear
9:15 PM 48.2 °F - 28.4 °F 46% 30.09 in 10.0 mi NNW 12.7 mph 19.6 mph N/A   Clear
9:35 PM 48.2 °F - 24.8 °F 40% 30.11 in 10.0 mi NNW 16.1 mph - N/A   Clear
9:55 PM 48.2 °F - 23.0 °F 37% 30.13 in 10.0 mi NNW 13.8 mph 20.7 mph N/A   Clear
10:15 PM 46.4 °F 39.8 °F 21.2 °F 37% 30.14 in 10.0 mi NNW 16.1 mph 24.2 mph N/A   Clear
10:35 PM 46.4 °F 39.8 °F 21.2 °F 37% 30.15 in 10.0 mi NW 16.1 mph 20.7 mph N/A   Clear
10:55 PM 46.4 °F 41.1 °F 19.4 °F 34% 30.16 in 10.0 mi NNW 11.5 mph 19.6 mph N/A   Clear
11:15 PM 44.6 °F 39.7 °F 19.4 °F 37% 30.16 in 10.0 mi NNW 9.2 mph 21.9 mph N/A   Clear
11:35 PM 44.6 °F 39.7 °F 17.6 °F 34% 30.17 in 10.0 mi NNW 9.2 mph - N/A   Clear
11:55 PM 42.8 °F 38.0 °F 17.6 °F 36% 30.18 in 10.0 mi NW 8.1 mph - N/A   Clear